sat.trackr.live / text

‹ back to catalog

STARLINK-36106

NORAD 67018 · 2025-293R

PAYLOAD ACTIVE UNKNOWN

§ Identity

Operator
Country
US
Launch date
2025-12-10
Launch site
AFWTR
Launch vehicle
Mass (kg)
RCS (m²)

Purposes: comms

External: N2YO · Heavens-Above · Gunter

§ Orbital elements

Epoch: 2026-09-20T13:54:55.815552Z

Period
96.11 min
Inclination
70.0017°
Eccentricity
0.0003686
Mean motion
14.98334324 rev/d
Perigee alt
569.5 km
Apogee alt
574.6 km
Semi-major
6,950.2 km
B*
1.5661e-4
RAAN
322.9410°
Arg perigee
269.8856°
Mean anomaly
90.1881°
Rev number
4,408

§ Raw data

STARLINK-361061 67018U 25293R   26263.57981268  .00001776  00000+0  15661-3 0  99902 67018  70.0017 322.9410 0003686 269.8856  90.1881 14.98334324 44081

JSON: /api/v1/satellites/67018 · /tle

For live sub-satellite position, see the globe view (requires WebGL).

§ Visibility from observer

Set your observer location to see the next 7 days of passes ≥ 10°. The values pass through the URL so the page stays shareable.

No JS? Fill the form by hand. The geolocation button needs JavaScript.